Lapeer, MI

8:59 AM EDT on July 21, 2017 (GMT -0400)
Lapeer

Weather History for KD95 - July, 2013

Change the Weather History Date:

Wednesday, July 17, 2013

  Actual Average (KFNT) Record (KFNT)
Temperature  
Mean Temperature 81 °F -  
Max Temperature 93 °F 83 °F 101 °F (1931)
Min Temperature 69 °F 60 °F 45 °F (1978)
Cooling Degree Days 16    
Growing Degree Days 31 (Base 50)    
Moisture  
Dew Point 72 °F    
Average Humidity 75    
Maximum Humidity 97    
Minimum Humidity 46    
Precipitation  
Precipitation 0.00 in - - ()
Sea Level Pressure  
Sea Level Pressure 30.24 in    
Wind  
Wind Speed 3 mph (West)    
Max Wind Speed 13 mph    
Max Gust Speed 16 mph    
Visibility 10 miles    
Events Rain    
Averages and records for this station are not official NWS values.
T = Trace of Precipitation, MM = Missing Value Source: NWS Daily Summary

Daily Weather History Graph

Daily Weather History Graph

Search for Another Location

Airport or City:

Trip Planner

Search our weather history database for the weather conditions in past years. The results will help you decide how hot, cold, wet, or windy it might be!

Date:

Astronomy

Jul. 17, 2013 Rise Set
Actual Time 6:09 AM EDT 9:08 PM EDT
Civil Twilight 5:35 AM EDT 9:42 PM EDT
Nautical Twilight 4:52 AM EDT 10:25 PM EDT
Astronomical Twilight 4:00 AM EDT 11:16 PM EDT
Moon 3:54 PM EDT (7/17) 1:18 AM EDT (7/17)
Length of Visible Light 16h 07m
Length of Day
14h 59m
Waxing Gibbous, 67% of the Moon is Illuminated
Jul 17
Waxing Gibbous
Jul 22
Full
Jul 29
Last Quarter
Aug 6
New
Aug 14
First Quarter

Hourly Weather History & Observations

Time (EDT) Temp. Heat Index Dew Point Humidity Pressure Visibility Wind Dir Wind Speed Gust Speed Precip Events Conditions
12:13 AM 73.9 °F - 72.5 °F 95% 30.27 in 10.0 mi Calm Calm - N/A   Clear
12:34 AM 74.5 °F - 72.7 °F 94% 30.27 in 10.0 mi Calm Calm - N/A   Clear
12:53 AM 72.9 °F - 71.2 °F 95% 30.27 in 10.0 mi Calm Calm - N/A   Clear
1:13 AM 73.0 °F - 71.4 °F 95% 30.27 in 10.0 mi Calm Calm - N/A   Clear
1:34 AM 72.9 °F - 71.6 °F 96% 30.27 in 10.0 mi Calm Calm - N/A   Clear
1:53 AM 72.9 °F - 71.6 °F 96% 30.27 in 10.0 mi SSW 3.5 mph - N/A   Clear
2:14 AM 73.0 °F - 71.6 °F 95% 30.27 in 10.0 mi Calm Calm - N/A   Clear
2:34 AM 72.7 °F - 71.2 °F 95% 30.26 in 10.0 mi Calm Calm - N/A   Clear
2:53 AM 73.2 °F - 71.1 °F 93% 30.26 in 10.0 mi Calm Calm - N/A   Clear
3:14 AM 74.8 °F - 71.2 °F 88% 30.27 in 10.0 mi Calm Calm - N/A   Clear
3:33 AM 73.2 °F - 70.5 °F 91% 30.26 in 10.0 mi Calm Calm - N/A   Clear
3:53 AM 73.8 °F - 70.7 °F 90% 30.26 in 10.0 mi Calm Calm - N/A   Clear
4:14 AM 73.4 °F - 70.5 °F 91% 30.26 in 10.0 mi Calm Calm - N/A   Clear
4:33 AM 70.9 °F - 69.4 °F 95% 30.26 in 7.0 mi Calm Calm - N/A   Clear
4:53 AM 70.5 °F - 69.3 °F 96% 30.26 in 5.0 mi Calm Calm - N/A   Clear
5:14 AM 70.0 °F - 68.7 °F 96% 30.27 in 7.0 mi Calm Calm - N/A   Clear
5:33 AM 69.8 °F - 68.4 °F 95% 30.27 in 7.0 mi Calm Calm - N/A   Clear
5:53 AM 69.8 °F - 68.9 °F 97% 30.28 in 5.0 mi Calm Calm - N/A   Clear
6:14 AM 70.2 °F - 69.1 °F 96% 30.28 in 4.0 mi Calm Calm - N/A   Clear
6:33 AM 70.3 °F - 69.4 °F 97% 30.29 in 5.0 mi SSW 3.5 mph - N/A   Clear
6:53 AM 71.6 °F - 70.0 °F 95% 30.28 in 5.0 mi SSW 4.6 mph - N/A   Clear
7:14 AM 73.2 °F - 70.7 °F 92% 30.29 in 7.0 mi Calm Calm - N/A   Clear
7:33 AM 75.6 °F - 70.9 °F 85% 30.29 in 10.0 mi WSW 3.5 mph - N/A   Clear
7:53 AM 77.4 °F - 71.1 °F 81% 30.29 in 10.0 mi West 3.5 mph - N/A   Clear
8:14 AM 78.4 °F - 71.6 °F 79% 30.29 in 10.0 mi West 5.8 mph - N/A   Clear
8:33 AM 79.7 °F - 72.0 °F 77% 30.29 in 10.0 mi West 5.8 mph - N/A   Clear
8:53 AM 80.8 °F 85.2 °F 72.5 °F 76% 30.29 in 10.0 mi West 4.6 mph - N/A   Clear
9:14 AM 81.9 °F 87.0 °F 73.0 °F 74% 30.29 in 10.0 mi WNW 5.8 mph - N/A   Clear
9:33 AM 83.3 °F 89.3 °F 73.2 °F 71% 30.29 in 10.0 mi WNW 5.8 mph - N/A   Mostly Cloudy
9:54 AM 83.8 °F 90.4 °F 73.6 °F 71% 30.28 in 10.0 mi WNW 4.6 mph - N/A   Mostly Cloudy
10:13 AM 84.6 °F 91.7 °F 73.8 °F 70% 30.28 in 10.0 mi West 6.9 mph - N/A   Scattered Clouds
10:33 AM 86.0 °F 93.8 °F 73.9 °F 67% 30.28 in 10.0 mi West 6.9 mph - N/A   Clear
10:54 AM 86.9 °F 95.4 °F 74.1 °F 66% 30.28 in 10.0 mi WSW 4.6 mph - N/A   Clear
11:13 AM 87.4 °F 95.8 °F 74.1 °F 64% 30.27 in 10.0 mi West 6.9 mph - N/A   Clear
11:33 AM 88.2 °F 96.4 °F 73.6 °F 62% 30.27 in 10.0 mi West 8.1 mph - N/A   Clear
11:54 AM 88.9 °F 97.6 °F 73.8 °F 61% 30.27 in 10.0 mi NW 5.8 mph - N/A   Clear
12:13 PM 89.2 °F 98.4 °F 74.1 °F 61% 30.27 in 10.0 mi West 6.9 mph - N/A   Scattered Clouds
12:33 PM 90.3 °F 98.7 °F 73.4 °F 57% 30.26 in 10.0 mi West 10.4 mph - N/A   Scattered Clouds
12:54 PM 90.9 °F 98.3 °F 72.3 °F 54% 30.26 in 10.0 mi WNW 8.1 mph - N/A   Scattered Clouds
1:13 PM 91.2 °F 98.5 °F 72.0 °F 53% 30.25 in 10.0 mi WNW 6.9 mph - N/A   Scattered Clouds
1:33 PM 91.4 °F 98.9 °F 72.0 °F 53% 30.25 in 10.0 mi West 6.9 mph - N/A   Mostly Cloudy
1:54 PM - - - N/A% - - North - - N/A   Unknown
2:13 PM - - - N/A% - - North - - N/A   Unknown
2:34 PM 91.9 °F 99.0 °F 71.6 °F 51% 30.24 in 10.0 mi West 9.2 mph - N/A   Clear
2:54 PM 92.7 °F 99.4 °F 71.1 °F 49% 30.23 in 10.0 mi West 9.2 mph - N/A   Scattered Clouds
3:13 PM 93.2 °F 99.9 °F 70.9 °F 48% 30.22 in 10.0 mi WNW 10.4 mph - N/A   Scattered Clouds
3:34 PM 93.4 °F 100.3 °F 71.1 °F 48% 30.21 in 10.0 mi WNW 5.8 mph - N/A   Clear
3:54 PM 93.9 °F 100.3 °F 70.5 °F 46% 30.20 in 10.0 mi West 5.8 mph - N/A   Clear
4:14 PM 93.6 °F 100.7 °F 71.2 °F 48% 30.20 in 10.0 mi NW 9.2 mph - N/A   Scattered Clouds
4:34 PM 93.7 °F 100.5 °F 70.5 °F 47% 30.18 in 10.0 mi West 6.9 mph - N/A   Scattered Clouds
4:54 PM 93.9 °F 100.3 °F 70.3 °F 46% 30.18 in 10.0 mi West 9.2 mph - N/A   Scattered Clouds
5:14 PM 93.0 °F 99.5 °F 70.7 °F 48% 30.18 in 10.0 mi WNW 8.1 mph - N/A   Scattered Clouds
5:34 PM 93.2 °F 100.5 °F 71.2 °F 49% 30.18 in 10.0 mi WNW 8.1 mph - N/A   Scattered Clouds
5:54 PM 91.9 °F 98.4 °F 70.7 °F 50% 30.16 in 10.0 mi WNW 9.2 mph - N/A   Scattered Clouds
6:14 PM 92.3 °F 99.7 °F 71.8 °F 51% 30.17 in 10.0 mi West 6.9 mph - N/A   Scattered Clouds
6:34 PM 90.3 °F 97.2 °F 71.8 °F 54% 30.17 in 10.0 mi West 5.8 mph - N/A   Scattered Clouds
6:54 PM 88.7 °F 95.7 °F 72.3 °F 58% 30.18 in 10.0 mi North 6.9 mph - N/A   Mostly Cloudy
7:14 PM 84.4 °F 91.7 °F 74.1 °F 71% 30.17 in 10.0 mi North 3.5 mph - N/A   Mostly Cloudy
7:34 PM 85.6 °F 93.0 °F 73.8 °F 67% 30.19 in 10.0 mi SW 12.7 mph 16.1 mph N/A   Mostly Cloudy
7:54 PM 85.5 °F 91.8 °F 72.5 °F 65% 30.18 in 10.0 mi WSW 6.9 mph - N/A   Scattered Clouds
8:14 PM 85.1 °F 90.4 °F 71.4 °F 63% 30.17 in 10.0 mi SW 3.5 mph - N/A   Clear
8:34 PM 82.4 °F 88.2 °F 73.2 °F 74% 30.18 in 10.0 mi Calm Calm - N/A   Scattered Clouds
8:54 PM 81.7 °F 87.6 °F 74.3 °F 78% 30.18 in 10.0 mi Calm Calm - N/A Rain Light Rain
9:14 PM 79.5 °F - 74.5 °F 84% 30.18 in 10.0 mi South 3.5 mph - N/A   Mostly Cloudy
9:34 PM 78.4 °F - 74.5 °F 88% 30.18 in 10.0 mi Calm Calm - N/A   Scattered Clouds
9:54 PM 77.5 °F - 74.8 °F 91% 30.18 in 10.0 mi Calm Calm - N/A   Clear
10:14 PM 77.5 °F - 74.7 °F 91% 30.18 in 10.0 mi Calm Calm - N/A   Clear
10:34 PM 77.5 °F - 74.5 °F 90% 30.18 in 10.0 mi Calm Calm - N/A   Clear
10:54 PM 78.3 °F - 74.7 °F 89% 30.17 in 10.0 mi WSW 3.5 mph - N/A   Clear
11:14 PM 79.2 °F - 74.7 °F 86% 30.17 in 10.0 mi Calm Calm - N/A   Clear
11:34 PM 79.7 °F - 74.3 °F 83% 30.17 in 10.0 mi Calm Calm - N/A   Clear
11:53 PM 79.3 °F - 73.4 °F 82% 30.18 in 10.0 mi WNW 4.6 mph - N/A   Clear